Location: Berlin
(38.3226°N, 75.2177°W)
Time: 23:55:21
(UTC+00:00)

ERS-2 - Pass Details

Date: 26 October 2020
Orbit: 493 x 497 km, 98.6° (Epoch: 05 December)

Event Time Altitude Azimuth Distance (km) Brightness Sun altitude
Rises 09:57:25 0° 180° (S) 2,564 5.8 -17.0°
Reaches altitude 10° 09:59:33 10° 187° (S) 1,686 4.8 -16.6°
Maximum altitude 10:03:01 43° 260° (W) 708 2.4 -16.0°
Enters shadow 10:05:31 17° 326° (NW) 1,319 3.9 -15.5°
